sat.trackr.live / text

‹ back to catalog

NUSTAR

NORAD 38358 · 2012-031A

PAYLOAD ACTIVE UNKNOWN

§ Identity

Operator
Country
US
Launch date
2012-06-13
Launch site
AFETR
Launch vehicle
Mass (kg)
RCS (m²)
1.26

Purposes: science

External: N2YO · Heavens-Above · Gunter

§ Orbital elements

Epoch: 2026-05-25T06:00:02.000160Z

Period
95.46 min
Inclination
6.0247°
Eccentricity
0.0007269
Mean motion
15.08547520 rev/d
Perigee alt
535.6 km
Apogee alt
545.7 km
Semi-major
6,918.8 km
B*
4.9087e-4
RAAN
206.1716°
Arg perigee
131.1623°
Mean anomaly
318.8832°
Rev number
130

§ Raw data

NUSTAR1 38358U 12031A   26145.25002315  .00008763  00000+0  49087-3 0  99942 38358   6.0247 206.1716 0007269 131.1623 318.8832 15.08547520  1306

JSON: /api/v1/satellites/38358 · /tle

For live sub-satellite position, see the globe view (requires WebGL).

§ Visibility from observer

Set your observer location to see the next 7 days of passes ≥ 10°. The values pass through the URL so the page stays shareable.

No JS? Fill the form by hand. The geolocation button needs JavaScript.